Hourly Data Report for October 25, 2012

All times are specified in Local Standard Time (LST). Add 1 hour to adjust for Daylight Saving Time where and when it is observed.

ST LEONARD CS
NEW BRUNSWICK

47°09'28.050" N
67°49'55.014" W
245.00 m
810I001
71019
WIY

Download Data

Hourly Data (October 2012)
Hourly Data Report for October 25, 2012
Temp Definition
°C
Dew Point Temp Definition
°C
Rel Hum Definition
%
Wind Dir Definition
10's deg

Wind Spd Definition
km/h
Visibility Definition
km
Stn Press Definition
kPa
Hmdx Definition


Wind Chill Definition


Weather Definition


TIME
00:00 -3.0 -5.9 80 28 6   99.41   -5 LegendNANA
01:00 -2.9 -4.9 86 31 4   99.45   -4 LegendNANA
02:00 -2.6 -4.4 87 30 2   99.40   -3 LegendNANA
03:00 -5.2 -6.1 93   0   99.45     LegendNANA
04:00 -5.8 -6.8 93   0   99.45     LegendNANA
05:00 -4.9 -5.5 96   0   99.49     LegendNANA
06:00 -5.4 -5.9 96 29 6   99.58   -8 LegendNANA
07:00 -5.0 -5.6 96 29 2   99.71   -6 LegendNANA
08:00 -4.1 -5.7 89 8 2   99.67   -5 LegendNANA
09:00 0.1 -3.5 77 9 2   99.70     LegendNANA
10:00 1.6 -2.9 72 32 4   99.68     LegendNANA
11:00 4.5 -4.2 53 35 6   99.66     LegendNANA
12:00 5.7 -2.3 56 29 4   99.60     LegendNANA
13:00 6.7 -3.6 48 30 7   99.56     LegendNANA
14:00 8.1 -5.8 37 28 4   99.51     LegendNANA
15:00 9.0 -7.1 31 30 2   99.47     LegendNANA
16:00 9.2 -6.6 32 32 4   99.48     LegendNANA
17:00 7.8 -6.2 36   0   99.49     LegendNANA
18:00 4.0 -3.7 57   0   99.49     LegendNANA
19:00 1.5 -3.9 67   0   99.55     LegendNANA
20:00 -0.4 -4.4 74   0   99.53     LegendNANA
21:00 -1.0 -4.3 78 13 4   99.53   -2 LegendNANA
22:00 -1.0 -4.5 77   0   99.48     LegendNANA
23:00 -1.0 -4.1 79 16 4   99.44   -2 LegendNANA

Notes on Data Quality.

Legend

  • E = Estimated
  • M = Missing
  • NA = Not Available
  • ‡ = Partner data that is not subject to review by the National Climate Archives
Date modified: